Flag for U.S.A. Weather past 2 weeks in Osage City, Kansas, U.S.A.

Now
86 °F

Sunny.


Feels Like: 86 °F
Forecast: 65 / 95 °F
Wind: 7 mph from West

Location: Forbes Field

Current Time: Jun 29, 2015 at 7:17:45 PM

Latest Report: Jun 29, 2015 at 6:53 PM


Visibility: 10 mi

Pressure: 29.88 "Hg

Humidity: 43%

Dew point: 61 °F

Location of Osage CityLocation

Historic Weather in Osage City — Graph

°F

Osage City temperature yesterday

Maximum temperature yesterday: 91 °F (at 2:53 PM)
Minimum temperature yesterday: 67 °F (at 4:53 AM)
Average temperature yesterday: 78 °F

Past Weeks' High & Low Weather Summary

 TemperatureHumidityPressure
High99 °F (Jun 20, 3:53 PM)93% (Jun 17, 5:53 AM)30.12 "Hg (Jun 17, 5:53 AM)
Low62 °F (Jun 27, 4:53 AM)32% (Jun 28, 4:53 PM)29.72 "Hg (Jun 20, 8:53 PM)
Average79 °F68%29.93 "Hg
* Reported Jun 14 5:53 PM — Jun 29 5:53 PM, Osage City, Weather by CustomWeather, © 2015

Note: Actual official high and low records may vary slightly from our data, if they occured in-between our weather recording intervals... More about our weather records

Advertising

Osage City weather history for previous 24 hours

 ConditionsComfort  
Time TempWeatherWind HumidityBarometerVisibility
5:53 PM
Mon, Jun 29
87 °FPassing clouds.6 mph43%29.89 "Hg10 mi
4:53 PM88 °FPartly sunny.12 mph42%29.90 "Hg10 mi
3:53 PM87 °FScattered clouds.10 mph40%29.91 "Hg10 mi
2:53 PM86 °FPassing clouds.14 mph42%29.92 "Hg10 mi
1:53 PM87 °FPassing clouds.9 mph40%29.93 "Hg10 mi
12:53 PM85 °FPassing clouds.9 mph46%29.94 "Hg10 mi
11:53 AM85 °FSunny.10 mph43%29.95 "Hg10 mi
10:53 AM82 °FSunny.10 mph49%29.95 "Hg10 mi
9:53 AM80 °FSunny.7 mph54%29.94 "Hg10 mi
8:53 AM75 °FSunny.7 mph64%29.93 "Hg10 mi
7:53 AM72 °FSunny.6 mph71%29.92 "Hg10 mi
6:53 AM65 °FClear.6 mph85%29.91 "Hg10 mi
5:53 AM65 °FClear.No wind81%29.89 "Hg10 mi
4:53 AM66 °FClear.5 mph78%29.88 "Hg10 mi
3:53 AM66 °FClear.7 mph78%29.87 "Hg10 mi
2:53 AM67 °FClear.6 mph76%29.87 "Hg10 mi
1:53 AM68 °FClear.8 mph73%29.87 "Hg10 mi
12:53 AM68 °FClear.7 mph73%29.86 "Hg10 mi
11:53 PM
Sun, Jun 28
69 °FClear.7 mph73%29.86 "Hg10 mi
10:53 PM70 °FClear.7 mph71%29.85 "Hg10 mi
9:53 PM74 °FClear.7 mph64%29.84 "Hg10 mi
8:53 PM79 °FSunny.6 mph52%29.83 "Hg10 mi
Weather by CustomWeather, © 2015

See weather overviewHow to use our weather pages